COSMOS 2491 DEB, 45129

Orbit data source: Space-Track

COSMOS 2491 DEB, 45129 is space debris in LEO originally from a launch on Wed, 25 Dec 2013 UTC launched from the Plesetsk Missile And Space Complex (PKMTR). Debris objects in space refer to the collection of defunct objects orbiting the Earth. Examples of debris include non-operational satellites, rocket bodies, and fragments generated from explosions, collisions, or faulty payload assembly.

Loading next visibility...
Identifier
45129, 2013-076AB
Orbit
LEO
Country
Flag of CISCIS
Related business
Manufacturer
TsNIIKhM
Mission
Spacecraft
Bus & Motor
Unknown
Mass
Unknown
Launch date (UTC)
2013-12-25 (13 years ago)
Launch vehicle
Unknown
Launch site
Plesetsk Missile And Space Complex (PKMTR)
Object type
Payload
Rocket body
Debris
Shape & HBR
Unknown shape, 0.1 m
Radar Cross Section
Small (<0.1 m²)

Expand to show TLE details & history
Last TLE update: 4 days ago

TLE from 4 days ago
0 COSMOS 2491 DEB
1 45129U 13076AB  26252.20875264  .00002626  00000-0  12237-1 0  9991
2 45129  82.4424  56.1778 0197745 288.0008  69.9625 12.69773629169746
Epoch: 2026-09-09T05:00Z
TLE epoch observation values (Epoch: 2026-09-09T05:00:36.228Z)
Latitude
-0.00008°
Longitude
-7.23727°
Altitude
1,335.714 km
Speed
7.213 km/s
True Right ascension
03h 44m 42s
True Declination
0° 00' 00"
Sunlit
Object was in daylight at epoch
Visualization orbit readout
Latitude
Unknown
Longitude
Unknown
Altitude
Unknown
Speed
Unknown
Apparent Right ascension
Unknown
Apparent Declination
Unknown
Sunlit
N/A
Visualization observer readout
Local Sidereal Time
23:20:37
Azimuth
Unknown
Elevation
Unknown
Doppler factor
Unknown
Orbital elements
Apogee altitude
1,533.593 km
Perigee altitude
1,226.759 km
Semi-major axis
7,758.313 km
Eccentricity
0.01977
Inclination
82.4424°
RAAN
56.1778°
Arg. of periapsis
288.0008°
True anomaly
72.109°
Mean anomaly
69.9625°
Eccentric anomaly
71.03399°
Mean motion
3.17609 °/min
Orbital period
113.35 mins
BSTAR
0.012237
Loading maneuver chart data...
Computing Atmospheric mass density...
Loading historical data...
Loading historical data...
Loading historical data...
Loading historical data...
Loading historical data...
Loading historical data...
Loading historical data...

Documentation

Showing up to 5 results
|